Los Alamitos, CA

12:28 AM PDT on June 26, 2017 (GMT -0700)
Los Alamitos Army Air Field

Weather History for KSLI - January, 2013

Change the Weather History Date:

Saturday, January 26, 2013

  Actual Average Record
Temperature  
Mean Temperature 60 °F -  
Max Temperature 66 °F 67 °F 89 °F (2003)
Min Temperature 55 °F 49 °F 38 °F (2017)
Degree Days  
Heating Degree Days 4    
Growing Degree Days 10 (Base 50)    
Moisture  
Dew Point 58 °F    
Average Humidity 99    
Maximum Humidity 100    
Minimum Humidity 82    
Precipitation  
Precipitation 0.02 in - - ()
Sea Level Pressure  
Sea Level Pressure 29.95 in    
Wind  
Wind Speed 4 mph (South)    
Max Wind Speed 13 mph    
Max Gust Speed -    
Visibility 6 miles    
Events Fog , Rain    
Averages and records for this station are not official NWS values.
T = Trace of Precipitation, MM = Missing Value Source: NWS Daily Summary

Daily Weather History Graph

Daily Weather History Graph

Search for Another Location

Airport or City:

Trip Planner

Search our weather history database for the weather conditions in past years. The results will help you decide how hot, cold, wet, or windy it might be!

Date:

Astronomy

Jan. 26, 2013 Rise Set
Actual Time 6:52 AM PST 5:17 PM PST
Civil Twilight 6:25 AM PST 5:44 PM PST
Nautical Twilight 5:55 AM PST 6:14 PM PST
Astronomical Twilight 5:26 AM PST 6:43 PM PST
Moon 5:14 PM PST 6:14 AM PST
Length of Visible Light 11h 18m
Length of Day
10h 25m
Full, 100% of the Moon is Illuminated
Jan 26
Full
Jan 26
Full
Feb 3
Last Quarter
Feb 9
New
Feb 17
First Quarter

Hourly Weather History & Observations

Time (PST) Temp. Dew Point Humidity Pressure Visibility Wind Dir Wind Speed Gust Speed Precip Events Conditions
12:58 AM 59.4 °F 59.4 °F 100% 29.96 in 10.0 mi SW 2.3 mph - N/A   Overcast
12:59 AM 59.0 °F 59.0 °F 100% 29.95 in 10.0 mi SW 4.6 mph - N/A   Overcast
1:58 AM 59.2 °F 59.2 °F 100% 29.95 in 10.0 mi SSW 2.3 mph - N/A   Overcast
2:14 AM 59.0 °F 59.0 °F 100% 29.93 in 9.0 mi ENE 2.3 mph - N/A   Light Drizzle
2:28 AM 59.0 °F 59.0 °F 100% 29.93 in 8.0 mi NE 1.2 mph - N/A   Overcast
2:42 AM 59.0 °F 59.0 °F 100% 29.93 in 9.0 mi Calm Calm - N/A   Overcast
2:52 AM 59.0 °F 59.0 °F 100% 29.92 in 9.0 mi Calm Calm - N/A   Overcast
2:56 AM 59.0 °F 59.0 °F 100% 29.92 in 8.0 mi Calm Calm - N/A Rain Light Rain
2:59 AM 59.0 °F 59.0 °F 100% 29.93 in 7.0 mi Calm Calm - 0.00 in Rain Light Rain
3:04 AM 59.0 °F 59.0 °F 100% 29.92 in 6.0 mi Calm Calm - N/A Rain Light Rain
3:18 AM 59.0 °F 59.0 °F 100% 29.91 in 9.0 mi Calm Calm - N/A   Overcast
3:38 AM 59.0 °F 59.0 °F 100% 29.91 in 9.0 mi Calm Calm - N/A   Overcast
3:58 AM 58.8 °F 58.8 °F 100% 29.92 in 8.0 mi Calm Calm - 0.01 in   Overcast
4:08 AM 59.0 °F 59.0 °F 100% 29.90 in 7.0 mi Calm Calm - N/A   Overcast
4:58 AM 59.0 °F 59.0 °F 100% 29.91 in 7.0 mi SW 2.3 mph - N/A   Overcast
5:53 AM 59.0 °F 59.0 °F 100% 29.90 in 8.0 mi Calm Calm - N/A   Overcast
5:58 AM 59.0 °F 59.0 °F 100% 29.91 in 8.0 mi Calm Calm - N/A   Overcast
6:03 AM 59.0 °F 59.0 °F 100% 29.90 in 8.0 mi SE 1.2 mph - N/A   Overcast
6:58 AM 59.0 °F 59.0 °F 100% 29.92 in 4.0 mi Calm Calm - N/A   Overcast
7:13 AM 59.0 °F 59.0 °F 100% 29.91 in 2.5 mi Calm Calm - N/A   Overcast
7:33 AM 59.0 °F 59.0 °F 100% 29.92 in 3.0 mi Calm Calm - N/A   Overcast
7:49 AM 59.0 °F 59.0 °F 100% 29.92 in 2.0 mi South 1.2 mph - N/A   Overcast
7:58 AM 59.5 °F 59.5 °F 100% 29.93 in 2.0 mi South 2.3 mph - N/A   Overcast
8:50 AM 60.8 °F 60.8 °F 100% 29.93 in 3.0 mi Calm Calm - N/A   Overcast
8:58 AM 60.1 °F 60.1 °F 100% 29.94 in 3.0 mi Calm Calm - N/A   Overcast
9:48 AM 60.8 °F 60.8 °F 100% 29.94 in 5.0 mi Calm Calm - N/A   Overcast
9:53 AM 60.8 °F 60.8 °F 100% 29.95 in 5.0 mi Calm Calm - N/A Rain Light Rain
9:58 AM 61.2 °F 61.2 °F 100% 29.96 in 5.0 mi Calm Calm - 0.00 in Rain Light Rain
10:17 AM 60.8 °F 60.8 °F 100% 29.95 in 5.0 mi SW 4.6 mph - N/A   Overcast
10:47 AM 62.6 °F 62.6 °F 100% 29.94 in 7.0 mi Calm Calm - N/A   Mostly Cloudy
10:58 AM 62.6 °F 62.6 °F 100% 29.95 in 7.0 mi SE 1.2 mph - 0.01 in   Mostly Cloudy
11:58 AM 66.2 °F 60.6 °F 82% 29.92 in 10.0 mi SSE 4.6 mph - N/A   Mostly Cloudy
12:59 PM 64.0 °F 61.7 °F 92% 29.92 in 10.0 mi SW 9.2 mph - N/A   Mostly Cloudy
1:52 PM 60.8 °F 60.8 °F 100% 29.90 in 10.0 mi South 10.4 mph - N/A Rain Light Rain
1:58 PM 60.8 °F 60.8 °F 100% 29.91 in 10.0 mi South 12.7 mph - 0.00 in Rain Light Rain
2:05 PM 60.8 °F 60.8 °F 100% 29.90 in 10.0 mi SSW 10.4 mph - N/A   Mostly Cloudy
2:49 PM 62.6 °F 59.0 °F 88% 29.91 in 10.0 mi SSW 6.9 mph - N/A   Scattered Clouds
2:58 PM 62.4 °F 59.0 °F 89% 29.92 in 10.0 mi South 8.1 mph - 0.00 in   Scattered Clouds
3:58 PM 60.3 °F 56.8 °F 88% 29.92 in 10.0 mi South 6.9 mph - N/A   Clear
4:24 PM 57.2 °F 55.4 °F 94% 29.92 in 10.0 mi South 10.4 mph - N/A   Partly Cloudy
4:34 PM 57.2 °F 57.2 °F 100% 29.92 in 2.0 mi South 10.4 mph - N/A   Mostly Cloudy
4:39 PM 55.4 °F 55.4 °F 100% 29.92 in 1.8 mi SSW 11.5 mph - N/A   Mostly Cloudy
4:44 PM 55.4 °F 55.4 °F 100% 29.92 in 2.0 mi SSW 9.2 mph - N/A   Mostly Cloudy
4:49 PM 55.4 °F 55.4 °F 100% 29.92 in 1.8 mi SSW 11.5 mph - N/A   Overcast
4:54 PM 55.4 °F 55.4 °F 100% 29.93 in 1.0 mi SSW 9.2 mph - N/A   Overcast
4:58 PM 55.4 °F 55.4 °F 100% 29.94 in 0.8 mi SSW 10.4 mph - N/A   Overcast
5:03 PM 55.4 °F 55.4 °F 100% 29.93 in 0.5 mi South 9.2 mph - N/A Fog Fog
5:23 PM 55.4 °F 55.4 °F 100% 29.93 in 0.8 mi South 5.8 mph - N/A   Overcast
5:33 PM 55.4 °F 55.4 °F 100% 29.93 in 1.2 mi South 8.1 mph - N/A   Overcast
5:38 PM 55.4 °F 55.4 °F 100% 29.93 in 4.0 mi South 8.1 mph - N/A   Overcast
5:53 PM 55.4 °F 55.4 °F 100% 29.94 in 2.5 mi South 10.4 mph - N/A   Overcast
5:58 PM 55.4 °F 55.4 °F 100% 29.95 in 1.8 mi South 8.1 mph - N/A   Overcast
6:03 PM 55.4 °F 55.4 °F 100% 29.95 in 1.0 mi South 8.1 mph - N/A   Overcast
6:13 PM 55.4 °F 55.4 °F 100% 29.95 in 0.8 mi South 10.4 mph - N/A   Mist
6:18 PM 55.4 °F 55.4 °F 100% 29.95 in 0.5 mi SSW 8.1 mph - N/A Fog Fog
6:28 PM 55.4 °F 55.4 °F 100% 29.95 in 0.8 mi SSW 10.4 mph - N/A   Mist
6:33 PM 55.4 °F 55.4 °F 100% 29.96 in 1.0 mi SSW 8.1 mph - N/A   Mist
6:38 PM 55.4 °F 55.4 °F 100% 29.96 in 1.2 mi SSW 6.9 mph - N/A   Overcast
6:43 PM 55.4 °F 55.4 °F 100% 29.96 in 1.5 mi SW 5.8 mph - N/A   Overcast
6:48 PM 55.4 °F 55.4 °F 100% 29.96 in 2.0 mi SW 5.8 mph - N/A   Overcast
6:53 PM 55.4 °F 55.4 °F 100% 29.96 in 3.0 mi SW 8.1 mph - N/A   Overcast
6:58 PM 55.6 °F 55.6 °F 100% 29.97 in 4.0 mi SW 8.1 mph - N/A   Overcast
7:13 PM 55.4 °F 55.4 °F 100% 29.97 in 7.0 mi WSW 5.8 mph - N/A   Overcast
7:28 PM 55.4 °F 55.4 °F 100% 29.97 in 9.0 mi SW 4.6 mph - N/A   Overcast
7:48 PM 57.2 °F 57.2 °F 100% 29.98 in 10.0 mi SSW 5.8 mph - N/A   Overcast
7:58 PM 56.5 °F 56.5 °F 100% 29.99 in 10.0 mi SSW 4.6 mph - N/A   Overcast
8:58 PM 56.8 °F 56.8 °F 100% 29.99 in 10.0 mi South 5.8 mph - N/A   Overcast
9:03 PM 57.2 °F 57.2 °F 100% 29.99 in 8.0 mi South 4.6 mph - N/A   Overcast
9:08 PM 57.2 °F 57.2 °F 100% 29.98 in 5.0 mi SSW 5.8 mph - N/A   Overcast
9:58 PM 56.3 °F 56.3 °F 100% 30.00 in 4.0 mi SE 4.6 mph - N/A   Overcast
10:03 PM 57.2 °F 57.2 °F 100% 30.00 in 1.5 mi SE 2.3 mph - N/A   Overcast
10:08 PM 57.2 °F 57.2 °F 100% 30.00 in 1.2 mi SSE 4.6 mph - N/A   Overcast
10:28 PM 55.4 °F 55.4 °F 100% 30.00 in 1.5 mi SSE 2.3 mph - N/A   Overcast
10:53 PM 57.2 °F 57.2 °F 100% 30.00 in 2.0 mi ESE 2.3 mph - N/A   Overcast
10:58 PM 56.3 °F 56.3 °F 100% 30.01 in 2.5 mi SSE 3.5 mph - N/A   Overcast
11:03 PM 57.2 °F 57.2 °F 100% 30.01 in 2.5 mi Calm Calm - N/A   Overcast
11:13 PM 57.2 °F 57.2 °F 100% 30.01 in 3.0 mi Variable 3.5 mph - N/A   Overcast
11:38 PM 57.2 °F 57.2 °F 100% 30.00 in 10.0 mi SSE 5.8 mph - N/A   Overcast
11:43 PM 57.2 °F 57.2 °F 100% 30.00 in 10.0 mi SSE 6.9 mph - N/A   Overcast
11:58 PM 56.5 °F 56.5 °F 100% 30.01 in 10.0 mi SSE 6.9 mph - N/A   Overcast